Temp
-4 -4 -5 -6 -7 -7 -7 -7 -7 -8 -8 -7 -7 -6 -6 -7 -7 -7 -8 -8 -8 -8 -8 -7 -7 -8 -8 -8 -9 -9 -9 -10 -10 -10 -10 -10 -10 -10 -10 -10 -10 -10 -10 -10
-4 -4 -5 -5 -6 -7 -7 -7 -7 -8 -8 -8 -8 -7 -6 -7 -6 -7 -8 -8 -8 -8 -7 -7 -7 -7 -7 -8 -8 -9 -9 -10 -10 -10 -10 -10 -10 -10 -9 -10 -10 -10 -9 -9
-4 -5 -5 -5 -5 -6 -6 -7 -8 -7 -8 -8 -8 -8 -7 -7 -6 -7 -7 -8 -8 -8 -8 -7 -7 -7 -7 -7 -8 -8 -9 -9 -9 -10 -10 -10 -10 -10 -10 -10 -10 -10 -10 -9
-4 -5 -5 -5 -5 -6 -6 -6 -7 -7 -7 -8 -8 -8 -8 -8 -7 -7 -7 -8 -8 -8 -8 -8 -8 -9 -8 -8 -8 -8 -9 -9 -9 -9 -9 -9 -9 -9 -9 -9 -9 -10 -10 -10
-5 -5 -5 -5 -5 -6 -6 -7 -7 -7 -7 -7 -7 -8 -8 -8 -7 -7 -7 -8 -7 -7 -8 -9 -9 -9 -9 -8 -8 -8 -8 -9 -9 -9 -9 -9 -9 -9 -9 -9 -9 -9 -9 -10
-5 -5 -4 -5 -5 -6 -7 -6 -6 -6 -6 -6 -7 -7 -7 -7 -7 -7 -7 -7 -7 -7 -8 -9 -9 -9 -9 -8 -7 -7 -7 -8 -8 -8 -8 -8 -8 -8 -8 -9 -9 -9 -9 -9
-5 -5 -5 -6 -6 -6 -7 -7 -7 -7 -7 -7 -7 -7 -6 -7 -7 -7 -8 -8 -7 -8 -8 -8 -8 -8 -8 -8 -8 -8 -7 -7 -7 -7 -7 -7 -7 -8 -8 -8 -8 -9 -9 -10
-5 -5 -5 -7 -7 -7 -7 -7 -7 -7 -8 -7 -7 -7 -7 -7 -7 -7 -8 -8 -8 -8 -8 -8 -8 -8 -8 -8 -8 -8 -9 -9 -8 -7 -7 -7 -7 -7 -7 -7 -7 -8 -8 -8
-6 -5 -6 -7 -7 -7 -7 -7 -6 -7 -7 -7 -7 -7 -7 -7 -7 -7 -8 -9 -9 -9 -8 -8 -7 -8 -8 -8 -8 -8 -7 -7 -8 -9 -8 -8 -8 -8 -8 -8 -8 -8 -8 -8
-7 -6 -6 -6 -7 -7 -7 -7 -7 -7 -7 -7 -7 -7 -7 -7 -7 -8 -9 -9 -9 -8 -8 -7 -7 -8 -8 -8 -8 -8 -8 -8 -8 -7 -7 -8 -8 -8 -8 -8 -8 -8 -9 -8
-7 -7 -7 -7 -7 -8 -8 -7 -7 -7 -7 -7 -7 -7 -7 -7 -7 -8 -8 -8 -8 -8 -7 -7 -7 -8 -8 -8 -9 -9 -8 -8 -8 -8 -8 -8 -8 -8 -8 -8 -8 -8 -8 -8
-8 -8 -8 -8 -9 -9 -8 -7 -7 -7 -7 -7 -8 -8 -8 -8 -8 -9 -8 -8 -8 -8 -8 -8 -9 -9 -9 -9 -9 -9 -9 -9 -8 -9 -9 -8 -8 -8 -8 -8 -8 -8 -8 -8
-8 -8 -8 -8 -8 -8 -9 -8 -7 -7 -7 -7 -7 -8 -9 -9 -9 -9 -9 -9 -9 -10 -10 -10 -10 -10 -11 -11 -11 -11 -10 -9 -9 -9 -9 -9 -9 -9 -9 -9 -9 -9 -9 -9
-9 -9 -8 -8 -9 -8 -9 -9 -9 -8 -8 -7 -7 -8 -9 -9 -9 -9 -9 -10 -10 -10 -11 -11 -12 -12 -12 -12 -12 -11 -10 -10 -9 -9 -9 -9 -9 -9 -9 -9 -9 -9 -9 -9
-9 -9 -9 -8 -8 -8 -9 -9 -9 -9 -8 -8 -8 -8 -9 -9 -10 -10 -10 -10 -11 -11 -11 -12 -12 -12 -12 -11 -11 -10 -10 -10 -9 -9 -9 -9 -9 -9 -9 -9 -9 -9 -9 -9
-9 -9 -9 -8 -8 -8 -9 -9 -8 -9 -8 -8 -8 -8 -8 -9 -10 -10 -11 -11 -11 -11 -11 -11 -11 -11 -11 -11 -11 -10 -10 -10 -10 -10 -10 -10 -10 -10 -10 -10 -10 -9 -9 -10
-9 -9 -9 -9 -9 -9 -9 -9 -9 -9 -8 -8 -8 -9 -9 -9 -10 -10 -10 -11 -11 -11 -11 -11 -11 -12 -12 -12 -12 -11 -11 -10 -11 -11 -10 -11 -10 -11 -11 -11 -10 -10 -11 -11
-9 -9 -9 -9 -9 -9 -9 -9 -9 -9 -8 -9 -9 -9 -9 -9 -9 -10 -10 -10 -11 -11 -12 -12 -12 -12 -12 -12 -12 -11 -11 -11 -11 -11 -11 -11 -11 -11 -11 -11 -12 -12 -12 -12
-9 -9 -9 -9 -9 -9 -8 -9 -9 -8 -8 -8 -9 -9 -10 -10 -10 -10 -11 -12 -12 -12 -11 -12 -12 -12 -12 -12 -12 -11 -11 -11 -11 -11 -11 -11 -11 -11 -11 -12 -12 -13 -13 -13
-9 -9 -9 -9 -9 -8 -8 -9 -9 -9 -8 -9 -10 -10 -10 -10 -11 -11 -11 -11 -12 -12 -13 -13 -13 -12 -13 -14 -12 -12 -11 -11 -11 -11 -12 -12 -12 -11 -12 -12 -12 -13 -13 -13
-10 -10 -9 -9 -9 -8 -8 -9 -10 -10 -10 -10 -10 -10 -10 -11 -11 -11 -12 -12 -12 -13 -13 -13 -13 -12 -13 -13 -12 -12 -13 -13 -12 -12 -12 -12 -12 -12 -12 -12 -13 -13 -13 -12
-11 -11 -10 -10 -10 -9 -9 -10 -10 -10 -10 -10 -11 -11 -11 -12 -12 -13 -13 -13 -13 -13 -13 -13 -13 -13 -13 -14 -13 -13 -14 -14 -14 -13 -13 -13 -13 -13 -13 -13 -13 -13 -12 -12
-12 -11 -11 -11 -10 -10 -10 -10 -10 -10 -11 -11 -11 -11 -11 -11 -12 -13 -13 -13 -13 -12 -12 -13 -13 -13 -14 -14 -14 -14 -15 -15 -14 -14 -14 -14 -13 -13 -13 -13 -14 -13 -12 -11
-12 -11 -11 -11 -11 -11 -11 -11 -11 -11 -11 -11 -11 -12 -12 -12 -12 -12 -12 -12 -12 -12 -13 -14 -14 -14 -14 -14 -15 -15 -15 -15 -14 -14 -14 -14 -14 -14 -13 -13 -13 -13 -11 -11
-12 -12 -12 -12 -11 -11 -11 -11 -11 -11 -12 -12 -12 -12 -13 -13 -13 -13 -13 -13 -13 -13 -14 -14 -14 -13 -14 -14 -14 -15 -15 -15 -15 -14 -14 -14 -14 -13 -13 -13 -13 -12 -12 -11
-12 -12 -12 -12 -12 -12 -12 -12 -12 -12 -12 -12 -13 -13 -13 -12 -12 -13 -13 -13 -13 -14 -14 -14 -13 -14 -14 -14 -14 -14 -14 -14 -14 -14 -14 -14 -14 -13 -13 -13 -13 -12 -12 -12
Height
5918 5918 5920 5919 5919 5918 5917 5915 5916 5917 5917 5917 5917 5917 5918 5919 5919 5919 5920 5921 5921 5919 5919 5917 5917 5916 5914 5913 5914 5914 5914 5913 5914 5914 5915 5915 5914 5914 5914 5914 5914 5914 5913 5913
5917 5917 5917 5917 5916 5915 5915 5915 5914 5916 5915 5916 5915 5914 5916 5917 5918 5918 5920 5921 5921 5920 5918 5915 5914 5913 5913 5912 5912 5913 5913 5913 5913 5913 5913 5913 5913 5912 5911 5912 5913 5913 5911 5910
5915 5915 5915 5914 5914 5914 5915 5915 5915 5916 5916 5915 5915 5913 5914 5917 5917 5918 5920 5921 5921 5919 5916 5913 5912 5911 5911 5911 5910 5909 5909 5910 5910 5910 5910 5909 5909 5909 5909 5909 5908 5908 5908 5907
5913 5913 5913 5914 5914 5913 5912 5913 5913 5914 5915 5916 5914 5911 5912 5914 5916 5918 5918 5918 5919 5917 5916 5913 5910 5908 5908 5908 5908 5907 5907 5907 5907 5906 5906 5905 5905 5905 5904 5905 5903 5903 5903 5903
5912 5911 5911 5911 5909 5910 5910 5910 5910 5910 5911 5912 5913 5911 5909 5911 5913 5915 5916 5915 5915 5915 5914 5913 5910 5909 5907 5907 5906 5905 5905 5904 5903 5902 5901 5900 5902 5900 5900 5899 5897 5897 5896 5896
5907 5907 5909 5908 5907 5908 5908 5910 5910 5909 5910 5911 5909 5908 5907 5908 5911 5912 5912 5912 5913 5912 5911 5911 5911 5910 5908 5904 5902 5902 5901 5900 5900 5898 5897 5895 5895 5895 5893 5891 5890 5890 5891 5890
5904 5904 5905 5906 5906 5906 5906 5906 5906 5907 5908 5909 5906 5905 5906 5907 5907 5908 5908 5908 5907 5908 5909 5909 5908 5908 5905 5901 5899 5898 5896 5894 5893 5891 5891 5890 5889 5887 5886 5885 5884 5883 5882 5882
5900 5901 5902 5902 5903 5904 5903 5904 5904 5903 5904 5906 5904 5903 5904 5905 5904 5904 5904 5905 5906 5906 5906 5905 5905 5902 5900 5898 5895 5891 5889 5887 5886 5885 5885 5883 5881 5881 5880 5879 5877 5877 5875 5874
5896 5897 5898 5899 5900 5900 5900 5901 5901 5900 5899 5899 5900 5900 5900 5901 5900 5900 5900 5901 5901 5902 5902 5901 5899 5897 5896 5894 5891 5888 5886 5884 5882 5879 5877 5876 5874 5873 5871 5870 5869 5868 5866 5865
5893 5893 5895 5896 5896 5897 5896 5898 5897 5896 5895 5895 5894 5894 5895 5897 5897 5897 5897 5897 5896 5897 5897 5896 5895 5892 5890 5887 5883 5880 5878 5877 5876 5874 5872 5869 5866 5862 5860 5858 5857 5855 5854 5852
5889 5890 5891 5891 5892 5892 5891 5891 5891 5892 5891 5891 5891 5889 5889 5891 5891 5891 5891 5890 5890 5889 5889 5889 5887 5886 5885 5881 5877 5873 5870 5867 5864 5863 5861 5860 5857 5854 5852 5849 5846 5843 5840 5839
5883 5887 5886 5887 5887 5888 5886 5886 5887 5886 5888 5886 5886 5887 5884 5885 5885 5885 5885 5884 5883 5882 5881 5880 5879 5877 5875 5872 5869 5865 5862 5859 5858 5855 5852 5849 5845 5841 5839 5837 5834 5830 5827 5824
5879 5881 5883 5883 5884 5883 5883 5883 5881 5881 5882 5882 5881 5881 5881 5879 5879 5879 5878 5877 5876 5874 5873 5871 5869 5867 5865 5862 5859 5856 5853 5851 5849 5846 5842 5838 5834 5830 5827 5823 5819 5816 5812 5810
5871 5873 5876 5877 5879 5880 5879 5878 5876 5875 5874 5876 5877 5874 5874 5874 5873 5872 5871 5870 5868 5867 5866 5864 5862 5860 5858 5855 5850 5847 5844 5840 5835 5832 5828 5825 5821 5817 5814 5810 5806 5802 5798 5795
5865 5867 5868 5871 5873 5874 5876 5874 5871 5868 5867 5868 5869 5868 5868 5868 5868 5867 5866 5866 5864 5863 5860 5858 5855 5851 5847 5843 5839 5835 5830 5826 5821 5819 5816 5812 5808 5802 5798 5793 5790 5787 5783 5779
5857 5859 5861 5863 5866 5867 5867 5866 5864 5862 5861 5860 5859 5860 5862 5862 5859 5859 5859 5858 5856 5854 5852 5849 5845 5841 5837 5832 5826 5821 5819 5814 5809 5806 5802 5796 5792 5788 5783 5777 5773 5769 5765 5762
5851 5853 5855 5856 5858 5858 5858 5858 5855 5855 5854 5853 5852 5853 5853 5853 5853 5852 5848 5845 5844 5843 5841 5837 5833 5828 5823 5817 5814 5810 5805 5801 5796 5791 5786 5781 5776 5771 5767 5762 5757 5752 5748 5745
5843 5845 5847 5848 5850 5848 5850 5851 5848 5847 5846 5846 5846 5846 5846 5845 5845 5844 5842 5840 5837 5832 5828 5825 5821 5815 5810 5806 5801 5796 5792 5787 5782 5776 5772 5766 5760 5756 5751 5747 5742 5738 5734 5731
5833 5834 5836 5838 5839 5840 5841 5844 5841 5837 5837 5837 5838 5838 5837 5836 5834 5832 5830 5827 5824 5820 5816 5812 5807 5803 5798 5792 5786 5782 5778 5772 5766 5761 5756 5751 5746 5742 5737 5734 5730 5726 5721 5718
5823 5825 5827 5827 5828 5830 5832 5834 5832 5830 5829 5830 5829 5828 5827 5825 5823 5821 5819 5816 5813 5810 5806 5800 5793 5786 5780 5774 5769 5765 5759 5755 5749 5745 5740 5735 5732 5728 5725 5721 5717 5712 5707 5707
5814 5814 5815 5815 5817 5818 5819 5818 5821 5819 5825 5820 5819 5819 5817 5815 5813 5810 5807 5804 5800 5795 5789 5782 5776 5771 5764 5757 5751 5747 5741 5737 5733 5728 5725 5721 5717 5716 5712 5709 5703 5699 5697 5697
5804 5805 5807 5808 5808 5810 5811 5810 5810 5812 5812 5812 5811 5808 5807 5804 5801 5798 5794 5790 5785 5780 5774 5767 5761 5756 5749 5742 5735 5730 5725 5721 5717 5713 5712 5709 5706 5704 5700 5697 5693 5690 5689 5688
5796 5798 5800 5801 5801 5801 5801 5802 5802 5801 5803 5803 5801 5797 5793 5790 5788 5785 5782 5778 5773 5768 5762 5756 5748 5743 5735 5725 5717 5713 5709 5706 5704 5703 5699 5697 5695 5693 5690 5687 5685 5682 5679 5679
5785 5787 5789 5792 5793 5793 5793 5793 5793 5793 5793 5791 5789 5786 5783 5780 5776 5772 5766 5762 5757 5751 5744 5738 5733 5726 5719 5712 5705 5701 5697 5694 5692 5690 5689 5687 5685 5682 5680 5678 5676 5674 5671 5671
5775 5777 5779 5780 5781 5782 5783 5784 5784 5783 5782 5780 5778 5775 5771 5767 5762 5757 5753 5748 5741 5735 5730 5724 5719 5713 5707 5699 5694 5691 5686 5684 5682 5681 5680 5678 5675 5673 5671 5669 5668 5665 5664 5665
5766 5768 5770 5770 5771 5772 5774 5774 5773 5773 5771 5770 5768 5763 5758 5753 5750 5745 5740 5734 5729 5724 5720 5715 5709 5703 5696 5689 5686 5682 5679 5677 5675 5674 5672 5668 5666 5663 5662 5661 5660 5659 5659 5660
Wind_Speed
7 8 5 8 11 13 15 17 7 3 5 10 16 10 5 3 12 16 18 19 22 19 15 14 11 10 5 4 7 8 9 6 7 5 4 3 4 5 5 6 6 6 8 9
9 7 8 11 14 16 16 14 10 9 12 12 16 15 9 1 7 11 16 18 19 20 17 12 13 11 7 4 3 5 8 9 10 11 9 8 9 10 9 12 12 12 10 10
10 8 8 10 9 13 14 17 17 16 13 11 17 14 12 6 3 3 7 11 17 19 19 16 16 18 14 9 5 4 6 10 12 15 14 15 15 15 17 17 14 17 17 14
9 8 11 10 7 5 4 9 13 18 19 16 17 20 20 14 7 4 6 10 16 18 19 22 23 26 22 15 11 6 6 9 12 14 18 19 16 14 17 20 21 21 23 22
7 10 14 12 12 7 6 12 11 13 16 19 22 22 21 18 13 11 9 11 17 17 20 23 24 26 26 18 13 13 11 9 12 15 19 20 15 21 17 21 19 21 22 25
8 14 14 12 12 8 9 8 10 14 13 13 18 21 21 22 17 16 11 13 17 19 22 23 22 24 22 19 19 17 19 16 16 17 19 21 22 24 24 25 26 23 24 25
11 14 13 10 11 10 11 11 13 16 13 12 18 21 21 18 15 16 13 18 21 23 22 22 23 22 17 19 19 21 22 22 22 23 23 24 26 27 28 29 30 32 33 32
14 15 12 11 13 11 13 9 12 17 20 18 23 27 26 23 22 19 17 20 21 24 24 21 26 23 20 20 22 23 21 22 27 26 27 29 31 31 31 32 34 36 38 39
14 16 15 14 12 16 15 14 13 17 18 19 20 23 24 22 25 26 25 23 25 26 28 27 27 23 22 22 23 23 24 23 23 28 33 34 35 36 37 39 39 40 40 41
15 19 17 17 14 13 15 12 13 14 16 18 23 25 26 25 27 25 22 25 30 32 31 31 25 23 22 24 26 28 29 27 27 28 31 32 36 41 42 43 43 44 46 47
13 18 20 18 17 17 20 16 15 15 18 16 18 25 26 25 26 27 29 32 35 38 37 29 27 27 25 26 29 32 33 34 35 36 37 38 39 41 42 43 46 48 50 49
17 14 19 18 18 19 23 25 21 23 20 20 18 21 25 27 29 32 34 38 39 37 36 36 37 39 36 36 33 35 38 38 39 41 42 42 44 47 47 47 47 50 51 52
20 21 18 20 20 22 25 25 27 28 25 24 25 22 23 28 30 32 35 38 39 40 42 43 45 46 48 47 47 45 44 45 45 45 45 47 49 50 51 53 53 52 53 53
24 28 23 24 25 23 25 28 32 34 34 30 26 28 29 29 32 34 34 36 40 43 46 49 50 52 54 57 56 51 49 50 51 51 50 51 53 54 54 54 54 55 57 57
34 32 32 29 26 25 25 29 34 38 37 35 33 31 32 32 33 34 36 37 40 43 47 49 51 50 50 50 49 53 54 54 55 56 54 55 55 56 56 58 60 58 57 57
40 38 36 35 32 34 35 35 33 36 38 37 38 36 35 36 39 40 42 43 45 46 45 41 41 44 46 49 51 54 51 54 56 57 56 58 57 57 59 60 61 61 59 54
46 47 46 45 41 42 43 35 32 32 36 39 40 40 41 42 41 42 47 50 51 46 42 42 44 47 51 54 56 56 54 56 58 58 58 59 61 62 60 60 58 57 52 49
49 51 51 50 45 45 40 31 33 35 36 36 38 38 39 39 38 38 38 40 40 41 43 46 49 52 55 56 61 63 57 58 57 59 58 57 58 57 55 51 49 48 48 44
51 51 50 48 43 43 39 32 33 38 39 37 34 34 33 33 34 36 36 38 40 43 46 48 52 54 56 60 60 58 60 61 60 59 55 54 51 50 48 48 45 42 41 42
49 49 47 44 44 44 40 33 33 36 38 35 32 31 31 34 35 36 39 42 44 46 49 53 58 59 62 67 66 64 62 60 61 61 59 57 52 50 46 45 42 43 38 38
43 44 44 45 44 43 40 39 34 36 31 33 33 32 33 35 37 39 41 44 47 50 54 58 61 62 66 68 68 69 68 66 62 59 50 40 38 43 43 41 38 35 31 34
41 42 43 42 42 42 40 41 40 37 36 34 32 33 34 35 37 39 42 45 49 53 57 61 64 65 68 71 70 67 63 53 54 39 37 40 41 40 38 39 31 32 32 31
39 39 41 42 42 42 43 41 40 39 34 32 34 36 38 40 42 44 46 49 52 56 59 61 64 62 61 60 58 58 54 46 37 41 39 36 36 37 34 29 32 31 30 28
38 40 41 41 41 41 40 39 38 36 35 35 35 37 39 42 45 49 54 56 58 59 61 58 52 45 43 48 51 43 39 39 38 36 34 34 34 34 33 38 34 32 27 27
39 38 38 38 39 38 38 37 36 36 36 36 37 39 42 46 51 54 56 58 59 59 55 48 44 42 48 46 42 36 33 34 29 30 32 34 33 32 32 34 31 23 22 16
38 38 38 39 39 38 36 35 36 36 37 37 37 41 44 50 52 55 53 50 47 42 41 35 37 39 39 31 29 28 28 30 31 30 32 34 31 29 30 28 27 22 17 12
Wind_Direction
283 280 281 224 215 235 252 261 245 299 289 318 331 306 353 81 54 52 49 22 11 27 22 16 34 23 6 315 267 269 286 291 295 281 274 300 331 331 328 339 336 322 328 326
263 267 264 242 231 233 235 239 241 247 284 314 308 297 328 98 66 71 33 22 8 13 29 20 17 17 29 355 303 282 264 263 276 289 295 291 277 281 307 296 289 291 287 290
248 250 262 260 253 241 236 221 235 250 259 278 279 286 302 312 224 353 33 6 357 15 24 26 19 16 6 345 331 341 294 268 261 265 274 284 279 264 254 248 279 276 277 278
254 262 256 254 217 192 206 215 243 250 254 240 264 280 281 293 268 296 343 351 341 10 25 17 12 360 359 349 330 318 289 277 280 284 279 288 279 279 262 271 264 253 271 269
240 261 243 234 234 206 212 213 233 232 223 225 239 253 269 269 275 293 305 325 336 0 1 0 1 355 344 338 323 305 283 278 276 284 289 296 280 290 279 277 276 265 262 264
228 252 258 252 245 229 218 245 251 242 246 251 235 244 260 272 294 276 295 296 323 341 344 345 343 343 340 326 318 317 315 310 297 287 281 286 289 282 288 296 295 286 278 271
229 247 258 275 253 233 211 224 238 244 241 235 250 253 271 279 281 274 286 295 316 322 325 325 324 332 326 310 305 307 306 299 298 296 294 292 291 293 295 293 291 289 289 285
238 250 267 241 246 244 220 231 246 247 246 240 255 262 267 256 267 282 281 291 301 305 306 311 317 318 313 306 305 307 304 295 294 290 292 293 294 294 293 291 290 291 291 290
252 261 260 248 249 233 225 263 263 252 259 252 246 251 256 266 269 279 285 287 285 288 296 307 307 312 315 304 296 293 285 279 280 292 295 293 290 289 288 288 289 290 287 285
246 258 252 239 249 249 260 270 277 274 271 264 260 257 259 263 266 274 279 276 278 286 294 296 295 307 305 296 295 293 294 291 290 288 282 279 287 291 292 292 292 290 289 287
226 247 258 258 260 276 286 281 277 278 278 272 267 269 275 275 274 275 277 281 287 291 293 298 306 307 302 306 303 296 295 296 297 296 293 291 287 282 282 284 286 285 285 284
261 236 254 264 269 271 280 283 276 280 275 279 276 265 266 267 270 273 277 283 286 288 294 301 304 307 310 310 303 295 294 293 294 294 292 290 289 286 285 284 282 282 282 283
253 257 250 242 255 269 282 285 285 283 283 290 295 294 275 270 271 273 277 282 288 293 297 300 303 305 308 310 305 298 292 293 294 291 288 287 285 283 284 285 285 284 282 281
251 258 258 258 258 265 278 288 284 281 285 289 290 290 287 279 274 277 285 288 290 293 295 295 296 297 298 295 293 292 291 292 289 287 288 287 287 287 286 284 281 280 281 282
246 248 258 265 272 280 284 283 283 280 281 287 286 283 284 287 289 289 291 290 289 288 289 290 291 290 287 286 288 290 289 289 289 291 292 290 289 288 286 285 285 284 282 282
255 258 266 272 277 280 285 282 273 266 273 275 279 283 286 287 292 293 290 287 288 288 288 287 285 285 284 287 287 285 288 289 290 292 292 290 288 287 286 287 289 288 286 284
252 257 263 271 277 279 281 275 270 265 266 273 276 282 285 285 287 287 287 284 282 286 291 290 290 292 290 289 291 289 288 289 291 290 288 289 290 290 290 293 291 288 284 279
250 254 256 262 266 268 269 264 268 269 268 268 271 274 276 279 280 280 282 284 289 292 293 292 288 285 285 290 292 287 286 291 289 287 289 288 291 289 292 294 285 283 281 276
252 255 259 263 265 261 264 264 266 272 273 276 280 279 278 278 279 281 283 283 282 280 281 285 286 286 287 289 288 286 283 288 293 292 290 291 288 292 294 290 290 286 278 276
253 258 262 262 261 259 259 264 267 268 275 281 277 278 282 283 281 281 280 282 285 288 290 290 289 287 288 290 292 293 292 292 290 291 293 294 284 290 289 290 287 287 274 274
251 252 255 257 261 266 271 279 281 280 284 280 283 286 284 280 282 285 286 287 287 287 286 286 288 289 291 292 292 292 291 292 290 296 296 286 287 287 287 289 290 281 273 276
247 252 258 262 267 269 274 280 283 283 284 289 289 287 287 288 288 286 285 285 285 286 287 288 290 292 291 293 292 294 295 294 296 287 280 284 283 285 287 289 284 279 279 277
251 253 257 261 265 270 274 278 281 283 287 285 285 288 289 290 292 293 289 285 284 287 288 290 292 296 298 295 292 290 290 284 279 288 279 287 283 284 285 287 287 285 281 279
251 253 254 258 262 267 270 274 278 283 286 289 292 292 291 290 290 290 291 294 297 296 295 300 306 301 301 299 295 296 294 286 284 288 292 291 283 286 285 286 289 284 276 276
250 254 257 259 263 267 270 274 280 282 287 290 291 293 295 297 293 292 295 296 297 297 303 303 304 301 303 301 294 298 295 289 283 290 290 294 288 288 287 289 291 273 264 246
252 254 257 261 264 267 272 275 277 281 283 284 284 284 285 288 295 296 298 300 300 300 300 304 308 310 311 296 297 300 297 290 289 289 291 291 289 291 287 282 282 263 250 251